Regional Weather Roundup
Issued by NWS

Home | Current Version | Previous Version | Graphics & Text | Print | Product List | Glossary On
Versions: 1 2 3 4 5 6 7 8 9 10 11 12 13 14 15 16 17 18 19 20 21 22 23 24 25 26 27 28 29 30 31 32 33 34 35 36 37 38 39 40 41 42 43 44 45 46 47 48 49 50
000
ASUS43 KDMX 031907
RWRIA

WEATHER ROUNDUP FOR IOWA
NATIONAL WEATHER SERVICE DES MOINES IA
200 PM CDT FRI JUL 03 2015

NOTE: "FAIR" INDICATES FEW OR NO CLOUDS BELOW 12,000 FEET WITH NO
SIGNIFICANT WEATHER AND/OR OBSTRUCTIONS TO VISIBILITY.

* - THESE STATIONS ARE NOT NWS STATIONS...THUS NOT UNDER NWS
QUALITY CONTROL.  THEY ALSO DO NOT REPORT WEATHER SUCH
AS PRECIPITATION OR FOG.

IAZ001>003-012>014-020>022-031>034-043>046-032000-
   NORTHWEST IOWA

CITY           SKY/WX    TMP DP  RH WIND       PRES   REMARKS
CARROLL *      SUNNY     73  52  46 CALM      30.01F
CHEROKEE *     SUNNY     73  54  49 S5        30.01S
DENISON *      SUNNY     73  54  49 CALM      30.00S
LE MARS *      SUNNY     73  57  56 SW6       30.02S
ORANGE CITY *  SUNNY     72  57  60 CALM      30.01S
SHELDON *      SUNNY     75  68  78 W7        29.99S
SIOUX CITY     SUNNY     76  55  48 S3        30.00F
SPENCER        SUNNY     77  52  41 CALM      30.00F
STORM LAKE *     N/A     73  50  43 SW7       30.02S
$$

IAZ055>058-069>071-079>083-090>094-032000-
   SOUTHWEST IOWA

CITY           SKY/WX    TMP DP  RH WIND       PRES   REMARKS
ATLANTIC *     SUNNY     73  54  49 CALM      30.01S
AUDUBON *      SUNNY     75  54  46 CALM      30.03S
CLARINDA *     SUNNY     77  55  47 CALM      30.01F
COUNCIL BLFS * SUNNY     73  52  46 CALM      30.02S
CRESTON *      SUNNY     73  52  46 CALM      30.01S
HARLAN  *      SUNNY     73  55  53 VRB3      30.05S
LAMONI         SUNNY     76  59  55 NE7       30.00F
RED OAK *      SUNNY     75  54  46 VRB3      30.01S
SHENANDOAH *   SUNNY     77  55  47 NE7       30.01F
$$

IAZ047>049-059>061-072>074-084-032000-
   CENTRAL IOWA

CITY           SKY/WX    TMP DP  RH WIND       PRES   REMARKS
AMES           SUNNY     76  56  49 N8        29.99F
ANKENY *       SUNNY     73  55  53 E5        29.99F
CHARITON *     SUNNY     73  55  53 N9        30.00F
DES MOINES     MOSUNNY   78  53  41 CALM      29.99F
GRINNELL*      SUNNY     73  54  49 NE5       30.01S
KNOXVILLE *    SUNNY     73  52  46 N6        29.99S
MARSHALLTOWN   SUNNY     75  55  49 VRB3      29.99F
PELLA *        SUNNY     75  57  53 CALM      30.01S
PERRY *          N/A     73  54  49 N3        30.00F
$$

IAZ004>006-015-016-023>025-035-036-032000-
   NORTH CENTRAL IOWA

CITY           SKY/WX    TMP DP  RH WIND       PRES   REMARKS
ALGONA *       SUNNY     75  50  41 VRB6      30.00F
CLARION *      SUNNY     75  55  50 SW6       29.99F
ESTHERVILLE    SUNNY     74  56  53 VRB3      29.99F
FORT DODGE *   SUNNY     73  54  49 CALM      30.00F
MASON CITY     SUNNY     76  53  44 W3        30.01S
FOREST CITY *  SUNNY     73  54  49 CALM      29.99F
IOWA FALLS *     N/A     73  54  49 CALM      30.01F
$$

IAZ007>011-017>019-026>030-037>042-050>054-066-032000-
   NORTHEAST IOWA

CITY           SKY/WX    TMP DP  RH WIND       PRES   REMARKS
CEDAR RAPIDS   SUNNY     74  55  51 CALM      29.98F
CHARLES CITY * SUNNY     75  57  53 CALM      29.99F
CLINTON *      MOSUNNY   73  57  56 W5        30.00F
DECORAH *        N/A    N/A N/A N/A MISG        N/A
DUBUQUE        SUNNY     73  50  44 CALM      29.99F
MONTICELLO *   SUNNY     75  70  83 VRB5      29.98F
OELWEIN *      SUNNY     73  54  49 SE3       30.00S
WATERLOO       SUNNY     74  51  44 CALM      29.98F
$$

IAZ064-065-067-068-078-032000-
   EAST CENTRAL IOWA

CITY           SKY/WX    TMP DP  RH WIND       PRES   REMARKS
DAVENPORT      MOSUNNY   75  57  53 W3        29.98F
IOWA CITY      MOSUNNY   76  59  55 VRB5      29.99F
MT. PLEASANT * SUNNY     79  54  41 NE7       29.97F
MUSCATINE *    MOSUNNY   77  55  47 NE6       29.97F
QUAD CITIES    SUNNY     76  56  49 E5        29.96F
$$

IAZ062-063-075>077-085>089-095>099-032000-
   SOUTHEAST IOWA

CITY           SKY/WX    TMP DP  RH WIND       PRES   REMARKS
BURLINGTON     MOSUNNY   77  61  57 NE8       29.96F
FAIRFIELD *    SUNNY     75  57  53 NE7G13    29.98F
FORT MADISON * MOSUNNY   75  63  64 E3        29.97F
KEOKUK *       SUNNY     75  55  50 VRB5      29.96F
OSKALOOSA *      N/A     73  59  60 N3        29.99F
CENTERVILLE *  SUNNY     73  59  60 N7        30.00F
OTTUMWA        SUNNY     75  57  53 VRB6      29.97F
WASHINGTON *   SUNNY     75  61  60 VRB5      29.99F
$$

ABBREVIATIONS USED IN REMARKS
   TC - TEMPERATURES IN CELSIUS
  WCI - WIND CHILL INDEX
   HX - HEAT INDEX
  VSB - VISIBILITY
$$



USA.gov is the U.S. government's official web portal to all federal, state and local government web resources and services.